Regional Weather Roundup
Issued by NWS Huntsville, AL

Home | Current Version | Previous Version | Text Only | Print | Product List | Glossary On
Versions: 1 2 3 4 5 6 7 8 9 10 11 12 13 14 15 16 17 18 19 20 21 22 23 24 25 26 27
000
ASUS44 KHUN 191310
RWRHUN

WEATHER ROUNDUP FOR THE TENNESSEE VALLEY
NATIONAL WEATHER SERVICE HUNTSVILLE AL
700 AM CST FRI JAN 19 2018

ALZ001>004-191400-
NORTHWEST ALABAMA

CITY           SKY/WX    TMP DP  RH WIND       PRES   REMARKS
COURTLAND HCN    N/A     16 N/A N/A CALM        N/A
RUSSELLVILLE     N/A     12 N/A N/A MISG        N/A
SHOALS AIRPORT FAIR      16  12  84 CALM      30.35S
SHOALS TVA RES   N/A     16 N/A N/A MISG        N/A
$$

ALZ005>007-016-191400-
NORTH CENTRAL ALABAMA

CITY           SKY/WX    TMP DP  RH WIND       PRES   REMARKS
CULLMAN AG STN   N/A     12 N/A N/A CALM        N/A
DECATUR AP     FAIR      13  12  96 CALM      30.36S
HUNTSVILLE AP  FAIR      17  15  92 E6        30.34S WCI   9
MERIDIANVILLE  FAIR      18  14  86 CALM      30.34S
REDSTONE ARSN  FAIR      17  15  93 CALM      30.34R
VINEMONT AP    FAIR      14  10  85 CALM      30.34S
$$

ALZ008>010-191400-
NORTHEAST ALABAMA

CITY           SKY/WX    TMP DP  RH WIND       PRES   REMARKS
ALBERTVILLE    FAIR      19  16  86 SW3       30.32R
FORT PAYNE     FAIR      12  10  92 CALM      30.34S
SCOTTSBORO AP  FAIR      14  14 100 CALM      30.37R
SCOTTSBORO HCN   N/A     14 N/A N/A MISG        N/A
VALLEY HEAD      N/A     12 N/A N/A MISG        N/A
$$

TNZ076-096-097-191400-
SOUTHEASTERN MIDDLE TENNESSEE

CITY           SKY/WX    TMP DP  RH WIND       PRES   REMARKS
TULLAHOMA      CLEAR     12  10  92 CALM      30.31S
WINCHESTER     CLEAR     14  10  85 CALM      30.33S
$$

...SURROUNDING SITES...

CITY           SKY/WX    TMP DP  RH WIND       PRES   REMARKS
ATLANTA        FAIR      26  13  57 NW8       30.29S WCI  18
ANNISTON       FAIR      16  11  80 CALM      30.36R
BIRMINGHAM     FAIR      19  13  77 CALM      30.37S
CHATTANOOGA    FAIR      17  13  84 CALM      30.36R
CORINTH        FAIR      19  14  79 CALM      30.32F
DALTON         FAIR      14  14 100 CALM      30.36S
GADSDEN        FAIR      13  12  96 CALM      30.37S
GOLDEN TRNGL   FAIR      17  12  80 CALM      30.37S
HALEYVILLE     FAIR      13  12  96 CALM      30.34S
JACKSON TN     FAIR      22  13  68 S6        30.29S WCI  14
MEMPHIS        FAIR      25  17  72 S6        30.30S WCI  18
NASHVILLE      FAIR      19  12  74 S5        30.32S WCI  12
OXFORD MS      FAIR      19  16  86 CALM      30.34S
ROME           FAIR      16  13  88 CALM      30.35R
SAVANNAH       CLEAR     21  16  79 S5        30.32S WCI  15
SELMER         CLEAR     19  14  79 SW5       30.30S WCI  13
TUPELO         FAIR      18  13  80 CALM      30.35S
TUSCALOOSA     FAIR      16  14  92 CALM      30.39
$$

...GULF COAST WEATHER...

CITY           SKY/WX    TMP DP  RH WIND       PRES   REMARKS
GULFPORT       FAIR      28  23  81 NW5       30.39R WCI  23
PASCAGOULA     FAIR      23  20  88 CALM      30.39R
MOBILE         MOCLDY    25  18  74 CALM      30.38R
GULF SHORES    FAIR      23  20  85 N7        30.39R WCI  15
PENSACOLA      FAIR      25  19  78 CALM      30.38R
DESTIN         FAIR      36  19  50 N5        30.38R WCI  32
PANAMA CITY    FAIR      28  20  70 CALM      30.38R
APPALACHICOLA  FAIR      30  21  69 NE5       30.37R WCI  25
$$





USA.gov is the U.S. government's official web portal to all federal, state and local government web resources and services.